Tracking 19170 objects as of 23-May-2018
HD Live streaming from Space Station
objects crossing your sky now

COSMOS 738

Track COSMOS 738 now!
10-day predictions
COSMOS 738 is classified as:


NORAD ID: 7827
Int'l Code: 1975-045G
Perigee: 1,475.8 km
Apogee: 1,516.2 km
Inclination: 74.0 °
Period: 115.7 minutes
Semi major axis: 7866 km
RCS: 0.6927 m2 (medium)
Launch date: May 28, 1975
Source: Commonwealth of Independent States (former USSR) (CIS)
Launch site: PLESETSK MISSILE AND SPACE COMPLEX (PKMTR)
aabbcc
Your satellite tracking list
Your tracking list is empty




NASA's NSSDC Master Catalog

Two Line Element Set (TLE):
1 07827U 75045G   18143.14758983  .00000006  00000-0  15439-3 0  9998
2 07827  74.0148 128.4150 0025627 328.0604 103.4495 12.44199170952703
Source of the keplerian elements: AFSPC